Wind_Speed
33 33 33 33 32 32 31 30 30 29 29 28 28 27 27 26 25 24 23 21 20 19 18 16 15 15 14 13 12 11 10 9 8 7 6 6 6 6 7 7 7 7 7 7 7 7 7 7 8 9 9 9 10 10 11 11 11 12 12 12 11 10 10 8 7 5 4 4 5
33 33 33 33 33 32 31 30 30 29 29 28 27 26 26 25 25 24 22 21 19 18 17 16 15 15 14 13 12 11 11 10 9 7 7 6 6 6 6 6 6 6 6 6 6 6 6 6 6 7 7 7 8 8 9 9 9 10 10 11 10 10 10 8 7 6 5 4 4
34 34 34 33 33 32 31 30 30 30 29 28 27 26 26 25 24 23 22 20 19 18 17 17 16 15 14 14 13 12 11 10 9 8 7 6 6 6 6 6 6 5 5 5 5 4 4 4 4 5 5 6 6 6 6 7 7 8 8 9 10 10 9 8 6 6 5 5 4
34 34 34 34 33 33 32 31 31 30 30 29 28 27 26 25 24 22 21 20 19 19 18 17 16 16 15 14 14 13 12 10 9 8 7 7 6 6 6 6 6 5 5 4 4 4 4 3 3 3 4 4 4 4 4 5 5 6 6 7 9 9 8 7 6 5 5 5 5
34 34 34 34 34 33 33 32 31 30 30 29 28 27 26 25 24 22 21 21 21 20 19 18 17 16 16 15 14 14 13 11 10 9 8 7 7 7 7 6 6 6 5 5 4 4 4 3 3 3 3 2 2 2 2 3 3 4 4 6 7 7 7 7 6 5 5 6 6
35 35 35 34 34 34 33 32 31 30 30 29 29 28 27 26 25 23 22 22 21 20 19 18 17 17 16 16 15 14 14 13 11 10 9 9 8 8 8 8 7 6 6 5 5 5 4 4 4 4 3 2 2 1 0 1 2 2 3 4 4 5 6 6 5 5 5 6 6
35 35 35 35 35 34 34 32 31 30 30 29 29 28 27 26 25 24 23 22 21 20 20 19 19 18 17 17 16 16 15 14 13 12 11 11 10 10 9 9 8 8 7 7 6 6 6 5 5 5 4 4 3 3 2 1 2 2 2 2 3 4 4 4 4 5 5 6 7
35 35 35 35 35 35 34 33 32 31 30 30 29 28 27 26 25 24 23 22 22 22 21 20 19 18 18 18 17 17 16 15 15 14 13 13 12 12 11 11 10 10 9 8 8 8 7 7 7 6 6 5 5 5 4 4 3 3 3 3 3 3 3 3 4 4 5 6 7
35 35 35 35 35 35 34 34 33 32 31 29 28 27 27 26 25 25 24 24 23 22 22 21 20 19 18 18 18 17 17 16 16 16 15 15 14 14 13 13 12 12 11 10 10 9 9 8 8 8 7 7 7 6 6 6 5 5 5 5 5 4 4 4 4 4 5 6 6
35 35 36 36 36 35 35 34 33 31 30 29 28 27 27 27 26 26 25 25 24 23 22 22 21 20 19 19 18 18 17 17 17 17 17 16 16 15 15 14 14 13 13 12 11 11 10 10 10 9 9 8 8 8 8 8 8 7 7 7 7 7 6 6 5 5 5 6 6
35 36 36 36 36 36 35 34 33 31 30 28 28 28 28 28 27 27 26 25 24 24 24 23 22 21 20 19 19 18 18 18 17 17 17 17 17 16 15 15 14 14 14 13 13 12 12 12 11 11 10 10 10 10 10 10 10 10 9 9 9 9 8 8 7 6 6 6 6
35 36 36 36 37 37 36 34 33 31 30 29 29 30 30 30 29 28 27 26 25 25 24 23 22 21 21 20 19 19 19 18 18 18 18 18 17 16 16 15 15 15 14 14 14 14 14 13 13 12 12 11 11 12 12 13 13 12 12 11 11 11 10 10 9 8 7 7 6
35 36 36 37 37 36 35 34 33 32 31 31 31 31 31 31 30 29 28 27 26 25 25 24 23 22 21 20 20 20 19 19 19 19 19 18 17 17 16 16 16 15 15 15 15 15 15 14 14 14 13 13 13 14 14 15 15 15 14 14 13 13 12 12 11 9 8 7 7
35 36 36 37 37 36 35 34 33 33 33 33 32 32 32 31 31 29 28 27 26 26 25 24 23 22 21 21 20 20 20 20 20 20 19 18 18 17 17 17 16 16 16 16 16 16 16 16 15 15 15 15 15 15 16 17 17 17 17 16 16 15 14 13 12 11 10 8 7
35 36 36 36 36 36 35 34 34 34 34 34 33 33 32 32 31 30 28 27 27 26 26 25 24 23 22 21 20 20 20 20 20 20 19 19 18 18 17 17 16 16 17 17 17 17 17 17 17 17 16 16 17 17 18 18 19 19 19 18 18 17 16 14 14 12 11 9 8
36 36 36 36 36 36 35 35 35 35 34 34 34 33 32 32 31 30 28 27 27 26 26 25 25 24 23 22 21 20 20 20 21 20 20 19 18 18 17 17 17 17 17 17 18 18 18 18 18 18 18 18 18 19 19 20 20 20 20 20 19 18 17 16 15 14 12 10 8
37 37 37 37 37 37 37 36 36 35 35 34 34 33 32 32 31 30 29 28 27 27 26 26 24 24 23 22 22 21 21 21 21 21 20 19 18 18 17 17 17 17 17 18 19 19 19 19 19 19 19 20 20 20 20 21 21 22 22 21 21 19 18 17 16 15 12 10 8
38 38 38 38 38 38 38 38 37 36 36 35 34 33 33 32 31 30 29 28 27 27 26 26 25 24 23 23 22 22 22 22 22 21 20 19 18 18 17 17 16 17 17 18 19 19 20 20 20 21 21 21 21 22 22 22 23 23 23 23 22 21 19 18 17 15 13 10 8
39 40 40 40 40 40 39 39 38 37 36 35 34 33 33 32 30 29 29 28 28 27 26 26 25 24 23 23 22 22 22 22 22 21 20 19 18 18 17 16 16 17 18 19 20 20 20 21 21 22 22 22 23 23 23 24 24 24 24 24 23 22 21 19 18 15 13 10 9
41 41 42 42 41 40 40 39 38 37 36 35 34 33 33 31 30 29 29 28 28 27 26 26 25 24 23 23 22 22 22 22 21 21 20 19 18 18 17 16 17 17 18 19 20 21 21 22 22 23 23 24 24 24 25 25 25 25 25 25 24 23 22 20 18 16 13 11 11
42 43 43 43 42 41 40 39 38 37 36 35 34 33 32 31 30 29 28 28 27 27 27 26 25 24 23 23 23 22 22 21 21 21 20 19 18 18 17 16 17 18 19 20 21 22 22 23 24 24 25 25 25 25 26 26 26 26 26 26 25 24 22 21 19 16 14 13 12
44 44 43 43 42 42 41 39 38 37 36 35 34 33 32 31 30 29 28 27 27 27 27 26 25 24 23 23 22 22 22 21 21 20 20 19 18 17 17 17 18 19 20 21 22 23 23 24 25 25 26 26 26 26 27 27 27 27 28 28 27 25 23 21 19 18 16 14 13
44 43 42 42 42 41 40 39 38 37 36 35 34 33 32 31 29 28 28 27 27 27 26 26 25 24 23 22 22 22 22 21 21 20 19 18 18 17 17 17 19 20 21 22 23 24 25 25 26 26 27 27 28 28 28 28 28 28 29 29 28 26 25 23 21 19 17 15 13
42 42 41 41 41 41 40 39 38 37 36 35 34 32 31 30 29 28 28 28 27 27 26 25 24 24 23 23 22 22 22 21 20 19 18 18 18 17 17 18 19 21 23 24 24 25 26 26 27 27 28 28 28 29 29 29 29 30 30 30 29 28 26 24 23 21 19 16 14
40 40 40 40 40 40 39 39 38 37 36 34 33 32 31 30 29 28 28 28 27 26 26 25 24 24 23 23 23 23 22 21 18 17 18 19 18 17 17 18 20 22 24 25 26 26 26 27 27 28 29 29 29 29 29 30 30 31 31 31 31 29 27 26 25 23 20 16 14
39 39 39 39 39 39 39 39 38 37 35 33 32 31 31 30 29 28 28 28 27 26 25 25 25 24 24 24 24 24 22 19 17 17 18 19 17 16 17 19 21 23 25 26 27 27 27 28 28 29 29 30 30 30 30 30 31 31 32 32 32 31 29 28 27 25 21 17 14
37 37 37 38 38 39 39 38 36 35 34 33 32 31 31 30 29 29 28 28 27 26 26 26 26 25 25 25 25 23 20 16 15 17 18 18 16 15 17 19 22 24 26 26 27 27 27 28 29 29 30 31 31 31 31 31 31 32 33 33 33 32 31 30 29 26 21 16 14
35 35 36 36 36 37 37 36 35 34 34 33 32 31 30 30 29 29 28 28 27 27 27 26 26 26 25 25 24 21 17 14 15 17 17 15 14 15 17 20 22 24 25 25 25 25 26 27 28 29 30 31 31 31 31 32 32 32 33 33 33 33 32 32 31 26 20 15 15
34 34 34 33 34 35 35 35 34 33 33 32 32 31 31 30 30 29 29 28 28 28 27 27 26 26 25 25 22 18 14 13 15 16 15 13 14 16 18 20 22 24 24 24 23 23 23 25 26 28 29 30 31 32 32 32 32 33 33 33 33 33 33 33 30 25 19 16 16
32 31 31 31 32 32 33 34 33 32 32 32 32 32 32 31 30 30 29 28 28 28 27 26 25 25 24 21 17 13 12 13 14 13 12 12 14 16 19 21 23 24 24 23 22 21 22 23 24 26 27 29 30 31 32 33 33 33 33 33 33 33 34 33 29 24 19 17 18
29 28 29 29 30 30 31 32 32 31 32 32 32 32 32 32 31 30 29 28 27 26 25 24 23 22 19 15 12 11 11 12 11 10 9 11 14 17 20 22 24 24 24 22 21 21 22 22 23 24 26 27 29 30 31 32 33 34 34 33 33 34 34 32 28 24 21 20 20
25 26 27 27 28 28 30 30 31 31 32 32 33 33 32 32 30 29 28 27 26 25 23 21 19 15 12 11 10 10 10 8 7 7 8 12 16 19 21 23 24 24 23 22 21 21 22 22 23 24 26 27 28 30 31 32 33 34 34 34 34 34 33 32 29 27 25 23 22
24 25 26 27 27 28 29 30 30 31 32 32 32 32 32 31 30 28 27 25 24 21 18 15 12 10 10 9 9 8 7 5 5 6 9 13 17 20 22 23 23 23 22 21 20 21 21 22 23 24 25 26 27 29 30 31 32 33 34 34 34 34 32 32 31 30 27 25 23
25 26 27 27 28 29 29 30 30 30 31 31 31 31 31 30 29 27 25 22 18 15 13 11 10 10 9 8 7 5 4 4 5 8 11 15 18 20 22 23 22 22 21 20 20 20 20 21 21 22 23 24 26 27 29 30 31 32 33 34 34 33 32 31 31 30 28 25 22
27 28 28 28 29 29 29 29 29 29 29 29 30 30 30 28 26 23 20 17 14 13 12 11 10 9 8 7 5 4 3 4 7 10 13 16 18 20 21 22 22 21 21 20 19 20 20 20 20 21 21 23 24 26 28 29 30 31 32 33 33 32 31 31 30 29 26 23 21
30 29 29 29 28 28 28 28 28 28 27 27 27 27 26 24 20 18 16 15 15 14 13 11 10 8 6 5 4 4 5 8 10 12 14 16 19 20 21 21 22 21 20 20 20 20 20 21 21 21 21 22 23 25 26 28 29 30 31 31 31 30 30 30 29 27 24 22 20
30 30 29 28 28 28 28 28 27 26 26 25 25 23 20 17 15 15 16 16 15 14 12 10 8 7 5 4 4 6 8 10 12 13 14 17 18 20 20 21 21 21 21 20 21 21 21 22 22 21 21 22 23 24 26 27 28 29 29 30 29 29 30 30 28 26 24 22 20
30 29 28 28 27 27 27 27 26 26 25 23 20 18 16 15 16 17 17 16 15 13 11 8 7 5 4 4 6 8 10 11 11 13 15 17 18 19 19 20 21 21 22 22 22 22 22 22 22 22 21 22 23 24 25 26 27 28 29 29 29 30 30 30 28 25 24 23 21
29 28 28 27 27 27 27 26 25 24 22 20 18 18 18 18 18 17 16 15 13 11 9 7 5 4 4 6 8 10 10 10 11 13 16 17 18 18 19 21 22 23 23 23 23 23 23 22 22 22 21 22 23 24 25 26 27 28 28 28 29 30 30 29 28 26 25 24 22
28 28 27 27 27 27 26 25 23 22 21 21 22 22 21 20 18 16 15 13 11 10 8 6 4 4 5 7 8 9 10 10 12 14 16 17 18 19 21 22 23 24 24 24 23 23 22 22 21 21 21 21 22 23 25 26 27 27 28 29 30 30 30 29 28 27 26 25 23
27 27 27 27 26 26 24 23 22 22 23 24 24 22 21 19 17 15 13 11 10 8 6 4 3 4 6 7 7 8 10 12 14 15 17 18 19 21 22 23 24 24 24 24 23 21 21 20 20 20 20 20 21 23 24 25 26 27 28 29 30 31 31 30 29 28 27 25 24
Wind_Direction
193 192 191 190 190 190 190 191 191 191 190 189 188 187 186 185 183 182 182 181 180 177 174 171 167 163 161 160 160 160 158 157 155 152 149 145 142 139 139 138 137 135 131 126 120 113 104 96 89 84 79 75 73 70 67 64 61 58 56 54 53 49 44 40 37 32 26 18 13
194 194 193 192 192 192 192 193 193 192 192 192 192 191 190 188 186 184 183 182 181 178 175 171 169 167 165 164 164 165 164 163 161 159 158 156 154 152 149 148 146 143 139 136 130 124 115 106 97 91 86 81 77 74 71 66 62 59 58 56 52 47 44 41 36 29 18 8 3
196 195 194 194 193 194 194 195 195 194 193 193 194 193 192 191 189 186 184 182 180 179 176 174 172 171 169 168 168 169 169 168 167 166 166 167 167 166 165 162 159 156 152 149 143 137 130 121 111 102 94 88 83 79 75 69 63 60 57 54 48 45 43 42 38 28 16 2 351
198 197 196 196 196 197 198 199 198 197 196 195 195 194 193 192 190 186 183 181 180 180 180 179 176 174 173 173 172 172 173 173 173 173 174 176 178 179 179 178 175 173 168 166 162 157 151 145 136 123 110 100 93 86 77 70 63 58 53 48 44 43 42 39 34 26 13 358 344
200 200 200 201 201 202 203 203 202 201 199 198 195 194 193 192 189 185 182 181 181 183 184 183 181 178 176 176 175 175 176 177 178 179 181 183 185 187 189 191 191 188 186 184 183 181 178 177 172 162 148 130 115 98 77 63 57 51 44 40 39 39 38 36 33 24 9 355 344
202 203 204 205 205 205 205 206 205 203 201 199 197 195 193 191 188 185 183 183 184 185 185 185 183 180 178 177 178 178 179 180 183 185 186 188 190 192 195 198 199 200 200 199 199 199 199 200 198 196 192 186 180 168 71 32 24 22 22 26 27 29 33 35 31 19 4 352 342
206 206 206 206 206 206 206 207 206 205 203 201 198 196 193 191 188 187 186 186 186 186 186 186 185 182 180 179 180 181 182 183 186 188 190 191 193 195 198 201 204 207 208 208 208 210 211 214 214 213 213 214 218 225 245 281 307 321 329 343 356 7 18 27 23 11 358 349 342
208 208 208 208 208 208 208 208 206 204 203 202 200 198 195 192 189 188 188 188 188 189 189 190 188 185 183 182 183 184 186 187 188 190 193 194 195 196 198 202 205 209 211 214 215 215 217 220 221 223 224 228 232 238 248 260 276 288 295 297 309 324 340 356 1 359 352 346 340
207 208 209 209 209 209 209 209 208 205 204 203 202 199 196 194 191 190 190 190 191 193 193 192 190 188 186 186 187 188 189 191 191 192 194 195 196 197 199 202 205 208 212 215 218 219 221 223 225 228 232 236 240 245 251 258 265 273 280 283 286 292 304 317 327 335 338 338 334
207 208 208 209 209 210 210 209 209 208 207 205 203 199 197 195 194 193 193 194 194 195 195 194 191 189 188 189 190 191 192 194 195 195 196 197 198 199 200 203 206 209 212 215 218 221 223 225 226 230 235 240 244 248 253 258 261 266 271 276 278 280 284 292 300 309 317 322 324
208 209 209 209 210 210 209 208 208 208 208 205 202 198 196 195 195 196 196 196 196 196 196 195 192 190 190 191 192 194 195 196 197 198 198 199 200 201 203 206 208 211 213 216 218 221 223 226 228 231 235 241 246 250 254 257 259 262 265 269 273 274 275 278 283 289 296 303 309
209 210 211 211 211 210 209 208 207 207 206 204 200 198 196 196 196 197 197 197 197 197 196 195 193 192 192 193 194 196 197 198 199 200 200 201 202 204 206 209 211 214 216 218 220 222 225 227 230 232 236 241 247 251 254 256 258 259 262 265 268 269 270 271 273 275 280 286 291
209 210 210 210 210 209 208 207 206 205 203 201 199 198 197 197 197 197 197 198 198 197 196 195 194 195 195 195 196 197 198 200 201 202 202 204 205 206 209 211 214 217 219 222 223 225 226 229 231 234 237 242 247 252 255 257 258 259 260 262 264 265 266 267 267 267 268 272 277
208 208 208 208 208 207 206 205 204 203 201 200 198 198 197 197 197 198 198 199 199 197 196 195 195 196 197 198 198 199 200 201 202 204 205 206 207 209 211 213 217 220 223 225 227 228 229 231 234 236 239 243 247 252 255 256 258 259 260 261 262 263 263 263 263 262 261 262 269
206 207 207 207 206 204 203 202 201 200 199 198 198 198 198 197 198 199 199 200 199 199 197 196 196 197 199 200 201 201 202 204 205 206 207 208 210 212 214 217 220 223 227 229 230 231 232 234 236 239 241 244 248 251 254 256 257 258 260 261 262 262 261 259 258 257 256 258 264
203 204 204 204 203 202 201 200 199 199 198 198 198 198 199 199 199 200 200 200 200 200 199 199 198 198 199 200 202 204 205 206 207 208 210 211 213 214 217 220 224 227 230 232 233 234 236 238 240 241 243 246 249 251 253 255 257 258 259 260 260 260 258 256 254 252 252 253 259
202 202 202 202 201 200 199 199 198 198 198 198 199 199 200 201 201 201 201 201 201 201 201 202 201 200 200 201 203 205 207 208 210 211 213 215 216 218 220 224 228 233 236 237 237 237 238 240 242 243 245 247 249 251 253 255 256 257 258 259 259 258 256 254 251 249 246 247 255
200 201 201 201 200 200 199 198 198 199 199 199 200 201 202 202 202 201 201 203 204 204 204 204 204 203 203 203 204 206 209 211 212 214 217 219 220 222 224 228 234 238 241 241 241 241 242 243 244 245 246 247 249 251 253 255 256 257 258 258 257 255 253 250 248 244 242 242 253
199 200 200 200 200 200 199 199 200 200 201 201 202 202 203 203 203 202 203 204 206 207 207 206 205 205 206 207 208 209 212 214 216 218 221 223 224 226 229 234 240 244 246 246 246 246 246 246 246 246 247 248 249 251 252 254 256 257 257 257 255 253 250 247 244 240 237 239 254
199 200 200 200 200 200 200 200 201 202 203 203 203 203 203 203 204 204 204 205 207 208 209 208 208 208 208 210 211 213 215 218 220 222 224 226 227 229 233 239 245 250 251 251 250 249 249 248 248 248 248 249 249 250 252 253 254 255 256 255 253 250 247 243 239 234 231 238 256
201 201 202 202 201 201 201 202 202 203 204 204 204 204 204 204 204 205 206 207 208 209 210 210 210 211 211 213 215 217 219 221 223 225 227 229 231 234 238 245 251 255 256 255 254 252 251 250 250 249 249 249 250 251 252 253 254 255 255 254 251 248 244 240 234 228 228 238 258
202 202 203 202 202 202 202 203 203 204 204 205 205 205 205 205 205 207 208 209 209 210 211 212 213 214 215 217 219 221 223 224 226 227 229 232 235 239 244 250 256 259 260 259 258 255 254 252 252 251 251 250 251 252 252 253 254 255 254 253 249 245 240 235 229 225 228 241 259
204 203 203 203 202 202 202 202 202 203 204 205 206 206 206 206 207 208 208 209 210 211 212 214 215 217 219 221 223 224 225 226 227 229 232 236 239 243 248 254 259 262 264 263 261 259 256 255 254 253 252 252 252 252 253 253 254 255 254 252 248 243 237 232 226 225 229 242 259
204 204 203 202 202 201 201 201 202 203 204 205 206 206 206 207 207 208 209 210 211 213 214 216 218 220 222 223 225 227 227 228 229 232 236 240 242 246 252 259 264 266 268 267 265 263 260 258 257 255 254 253 253 253 253 253 254 254 254 252 248 242 235 229 226 226 230 242 258
203 203 203 202 201 200 200 201 202 203 205 206 207 207 207 207 208 209 210 211 213 214 216 218 220 221 223 225 226 227 228 229 232 237 242 243 245 251 260 267 270 272 273 272 270 267 264 262 260 259 258 257 256 255 254 254 254 254 254 253 248 242 234 228 225 226 231 241 257
203 203 202 201 200 200 200 201 203 204 206 207 208 208 208 208 209 210 211 213 214 216 218 219 221 223 224 225 226 227 228 230 237 243 246 246 250 259 269 275 278 279 278 277 274 271 268 266 265 263 262 261 259 257 256 255 254 254 254 253 249 242 234 228 226 226 230 239 254
203 202 201 201 199 199 200 202 203 205 207 208 208 208 208 209 210 211 213 214 216 217 219 220 222 224 225 226 227 226 228 233 242 247 247 247 255 266 274 280 283 284 284 282 280 276 273 271 269 268 266 264 262 260 258 257 256 255 254 252 249 243 236 231 228 227 229 238 253
203 202 201 199 198 198 200 202 204 205 207 208 209 209 209 210 211 213 214 216 217 218 220 221 223 225 226 227 227 227 229 237 244 246 247 252 261 271 277 282 285 287 287 287 285 282 279 277 275 272 270 267 264 262 260 259 257 256 255 252 249 243 237 233 229 227 229 240 255
203 202 199 197 197 198 200 202 205 208 210 210 209 209 210 211 212 214 215 217 218 219 221 222 224 226 227 228 227 227 230 236 241 244 248 257 267 274 280 283 286 288 289 289 288 285 283 281 279 277 274 271 267 265 262 260 258 257 255 253 249 243 237 232 228 226 229 240 255
204 201 198 196 196 197 200 203 207 211 212 211 210 210 210 212 213 215 217 218 219 221 223 224 226 228 229 228 226 224 227 233 238 243 251 264 273 279 282 285 287 289 290 291 289 287 285 283 282 280 277 274 270 267 264 261 259 257 256 254 250 244 237 230 225 224 228 239 253
203 199 196 195 196 198 203 207 211 213 213 211 210 210 211 213 214 216 218 220 221 223 225 227 229 230 228 222 217 217 223 229 235 245 259 272 279 283 285 286 289 291 292 292 290 288 286 285 283 282 279 276 272 269 265 263 260 258 257 255 252 246 238 229 223 223 229 240 253
200 197 194 194 198 203 209 213 215 215 213 212 211 211 213 214 216 218 220 221 223 224 226 228 227 222 213 205 208 214 221 229 241 258 273 281 284 286 287 288 291 293 294 293 291 289 287 286 285 283 281 278 274 270 267 265 262 260 258 257 255 249 240 229 223 224 231 242 254
198 195 195 198 203 208 213 215 216 215 213 213 213 213 214 215 217 219 220 222 224 225 223 217 208 197 193 198 208 215 222 235 260 279 286 287 287 287 288 290 293 294 294 292 290 289 288 287 286 285 283 280 276 272 269 266 263 261 259 258 257 252 243 231 226 227 234 246 256
198 198 200 203 207 209 211 214 214 214 213 213 213 214 215 216 218 220 221 221 218 212 201 190 183 183 189 199 203 208 221 253 284 293 292 289 287 287 289 291 292 292 291 290 289 288 288 287 286 286 284 281 276 272 268 266 264 261 259 258 257 252 243 232 228 230 238 250 257
200 201 203 205 206 207 209 210 211 212 212 212 213 214 216 217 219 220 217 209 196 183 175 173 177 183 188 192 197 213 249 286 301 299 293 289 287 287 288 289 290 290 289 289 288 288 288 288 287 287 285 280 274 270 267 264 262 260 259 258 256 249 239 230 228 233 242 253 257
202 202 202 203 204 205 207 207 209 209 209 209 211 213 215 217 216 211 199 186 174 167 166 170 176 178 180 188 213 252 291 308 307 301 292 287 286 286 287 288 289 289 289 290 290 290 289 289 289 289 285 279 272 268 265 263 261 259 258 257 252 244 234 228 228 235 246 256 255
202 201 201 201 203 204 205 206 205 205 204 206 208 210 208 203 192 181 174 170 164 163 166 170 171 176 188 217 261 297 311 313 306 297 288 285 285 286 288 289 289 290 291 291 291 291 290 290 291 290 285 277 270 266 263 261 259 257 256 253 247 239 232 228 231 239 250 257 252
200 201 201 202 203 203 203 202 201 201 201 202 200 194 182 168 160 158 159 162 163 165 166 163 168 186 218 262 298 312 315 310 299 289 284 283 284 287 289 290 291 292 293 293 292 292 291 291 292 290 286 277 270 265 261 258 256 255 253 250 245 238 232 230 234 243 252 254 247
199 201 202 202 202 201 199 197 197 196 194 187 174 161 152 149 148 150 155 160 165 164 161 161 181 217 262 296 311 315 312 303 290 283 282 284 286 289 291 292 292 293 294 294 293 293 293 292 293 291 287 279 272 265 261 257 255 253 252 249 244 238 234 232 236 245 251 250 243
199 201 201 201 199 196 194 192 190 185 175 162 152 147 145 145 146 149 153 157 157 157 160 174 207 257 292 308 314 313 304 292 283 281 283 286 289 292 293 293 293 293 294 295 295 294 294 293 293 292 287 280 272 266 260 256 253 252 251 250 245 239 235 234 238 244 248 246 239
198 198 198 196 194 192 187 181 173 164 156 150 148 146 147 147 148 150 151 149 148 153 167 198 252 287 304 311 312 305 293 285 283 283 286 290 292 293 292 292 292 293 294 295 295 295 294 293 292 291 286 279 272 265 259 254 251 250 250 250 247 241 236 235 239 244 245 242 236
Height
835 836 837 838 839 840 841 842 842 843 844 844 845 846 847 849 850 852 854 855 856 858 859 860 860 861 862 862 863 864 864 865 865 866 867 867 867 867 867 867 867 867 867 867 867 867 867 868 868 868 868 869 869 869 869 869 869 869 869 869 869 869 869 870 870 870 870 870 870
834 835 836 837 838 839 840 841 842 843 844 844 845 846 847 848 849 851 852 854 856 857 858 859 860 860 861 861 862 863 863 864 865 865 866 867 867 867 867 867 867 867 866 866 867 867 867 867 868 868 868 868 869 869 869 869 869 869 869 869 869 869 869 869 869 869 870 870 870
833 834 835 836 838 838 839 840 841 842 843 844 845 845 846 847 848 850 851 853 855 856 857 858 859 859 860 860 861 862 862 863 864 865 865 866 867 867 867 867 867 867 866 866 866 866 866 867 867 867 868 868 868 868 868 868 868 868 868 868 868 868 868 868 868 869 869 869 869
833 833 834 835 836 837 838 839 840 841 842 843 844 845 846 847 848 849 851 853 854 855 856 856 857 858 859 859 860 860 861 862 863 864 865 865 866 867 867 867 867 867 866 866 866 866 866 866 867 867 867 868 868 868 868 868 868 868 868 868 867 867 867 867 868 868 868 868 868
832 833 833 834 835 835 836 837 838 839 840 842 843 844 845 847 848 849 850 851 853 854 855 855 855 856 857 858 859 859 860 861 862 862 863 864 865 866 866 867 867 866 866 866 866 866 866 866 866 866 867 867 867 867 868 868 867 867 867 867 867 867 867 867 867 867 867 868 868
830 832 832 833 834 835 836 836 837 838 839 840 842 843 844 846 847 848 849 850 851 853 854 854 854 855 856 857 858 858 859 860 860 861 862 863 864 865 865 866 866 866 866 866 866 865 865 865 865 866 866 866 867 867 867 867 867 867 867 867 866 866 866 866 866 867 867 867 867
829 830 831 832 833 834 835 835 837 838 838 839 840 842 843 845 846 847 848 849 850 852 853 853 854 854 855 855 856 857 857 858 859 859 860 861 862 863 864 864 865 865 865 865 865 865 865 865 865 865 865 866 866 866 866 866 866 866 866 866 866 866 866 866 866 866 866 866 866
828 829 830 831 832 833 833 834 835 836 837 838 839 841 842 843 845 846 847 848 849 850 851 852 853 853 853 854 855 855 856 856 857 857 858 859 859 860 861 862 863 864 864 864 864 864 864 864 864 864 865 865 865 865 865 865 865 865 865 865 865 865 865 865 865 865 865 865 865
827 828 829 830 831 832 832 833 834 835 836 837 838 840 841 843 844 845 845 846 847 848 850 850 851 852 853 853 853 854 854 855 855 855 856 857 857 858 859 860 861 862 862 863 863 863 863 863 863 864 864 864 864 864 865 865 864 864 864 864 864 864 864 864 864 864 864 864 864
825 826 828 829 830 830 831 832 833 834 835 836 838 839 840 841 842 843 843 844 846 847 848 849 850 851 851 852 852 853 853 854 854 854 855 855 856 857 858 858 859 860 860 861 861 862 862 862 862 862 863 863 863 863 863 863 863 863 863 863 863 863 863 863 863 863 863 863 863
823 824 826 827 828 829 830 831 832 833 834 835 837 838 839 840 840 841 842 843 844 845 846 847 848 849 850 850 851 851 852 853 853 854 854 855 855 856 856 857 858 858 859 859 860 860 860 861 861 861 861 862 862 862 862 862 862 862 862 861 861 861 861 861 861 861 862 862 862
821 823 824 825 826 828 829 830 831 832 833 834 835 836 837 838 838 839 840 841 842 843 844 845 846 847 848 849 849 850 850 851 852 853 853 854 854 855 855 856 857 857 858 858 858 859 859 859 860 860 860 860 860 861 861 861 861 860 860 860 860 860 860 860 860 860 860 860 861
820 821 822 824 825 826 827 828 829 830 831 832 833 834 835 836 837 838 838 839 840 841 843 844 845 845 846 847 848 848 849 850 851 851 852 852 853 853 854 855 855 856 856 857 857 857 858 858 858 858 859 859 859 859 859 859 859 859 859 859 858 858 858 858 859 859 859 859 860
818 819 820 822 823 824 825 826 827 828 829 830 831 833 834 835 836 836 837 838 838 840 841 842 843 844 845 845 846 847 848 848 849 850 850 851 852 852 853 853 854 855 855 855 856 856 856 856 857 857 857 857 857 857 858 858 858 857 857 857 857 857 857 857 857 858 858 858 858
816 818 819 820 821 823 824 825 825 827 828 829 830 831 833 834 835 835 836 837 838 838 839 840 841 842 843 844 845 846 847 847 848 849 849 850 850 851 852 852 853 853 854 854 854 855 855 855 855 855 855 856 856 856 856 856 856 856 856 855 855 855 856 856 856 856 857 857 858
814 816 817 818 820 821 822 823 824 825 826 828 829 830 832 833 833 834 835 836 837 838 839 839 840 841 842 843 844 845 845 846 847 848 848 849 849 850 850 851 851 852 852 853 853 853 853 853 854 854 854 854 854 854 854 854 854 854 854 854 854 854 854 855 855 855 856 856 856
813 814 815 816 818 819 820 821 822 823 825 826 827 829 830 831 832 833 834 835 836 837 838 838 839 840 841 842 843 844 844 845 846 846 847 847 848 849 849 850 850 850 851 851 851 852 852 852 852 852 853 853 853 852 852 852 852 852 852 852 852 853 853 853 854 854 854 855 855
811 812 813 814 815 816 817 818 820 821 823 824 825 827 828 829 830 832 833 834 835 836 837 838 838 839 840 841 842 842 843 844 844 845 846 846 847 847 848 848 849 849 849 850 850 850 850 850 851 851 851 851 851 851 851 850 850 850 850 850 851 851 851 852 852 853 853 853 854
808 810 811 812 813 814 815 816 818 819 821 822 823 825 826 827 829 830 831 833 834 835 835 836 837 838 839 840 840 841 842 843 843 844 844 845 846 846 847 847 848 848 848 848 848 848 849 849 849 849 849 849 849 849 849 849 849 849 849 849 849 849 850 850 851 851 852 852 853
806 807 808 809 810 812 813 814 816 817 819 820 822 823 824 826 827 829 830 831 832 833 834 835 836 837 838 839 840 840 841 841 842 843 843 844 845 845 845 846 846 847 847 847 847 847 847 847 847 847 848 848 848 848 847 847 847 847 847 847 848 848 848 849 849 850 850 850 851
803 804 805 806 808 809 811 812 814 815 817 819 820 821 823 824 826 827 828 829 831 832 833 834 835 835 837 837 838 839 840 840 841 842 842 843 844 844 845 845 845 845 845 845 845 845 845 845 846 846 846 846 846 846 846 846 846 845 845 846 846 846 847 847 848 848 848 849 849
800 801 803 804 806 807 809 810 812 814 815 817 818 820 821 823 824 825 827 828 829 830 831 832 833 834 835 836 837 838 838 839 840 841 842 842 843 843 844 844 844 844 844 844 844 844 844 844 844 844 844 844 844 844 844 844 844 844 844 844 844 845 845 846 846 846 846 847 847
798 800 801 803 804 806 807 809 811 812 814 815 817 818 820 821 823 824 826 827 828 829 830 831 832 833 833 834 835 836 837 838 839 840 841 842 842 843 843 843 843 843 843 843 843 843 842 842 842 843 843 843 843 843 843 842 842 842 842 842 843 843 843 844 844 844 844 845 845
796 798 800 801 803 804 806 808 809 810 812 813 815 817 819 820 822 823 825 826 827 828 829 830 830 831 832 833 834 835 836 837 838 840 841 841 842 842 842 843 842 842 842 841 841 841 841 841 841 841 841 841 841 841 841 841 841 840 840 840 840 841 841 842 842 842 843 843 843
795 796 798 799 801 803 805 806 807 809 810 812 814 816 818 820 821 822 823 824 825 826 828 829 829 830 831 832 833 834 835 836 838 839 840 841 841 841 842 842 841 841 840 840 840 839 839 839 839 839 839 839 839 839 839 839 839 839 838 838 838 839 839 840 840 840 840 841 841
793 795 796 798 799 801 803 804 806 808 809 811 814 815 817 819 820 821 822 823 824 825 826 827 828 829 830 831 832 833 834 835 837 839 840 840 840 840 841 841 840 840 839 838 838 838 838 838 838 838 837 837 837 837 837 837 837 837 836 836 836 837 837 837 837 838 838 839 840
792 793 795 796 798 799 801 803 805 807 809 811 813 814 816 818 819 820 821 822 823 824 825 826 827 828 828 829 830 831 833 835 837 838 838 838 839 840 840 840 839 838 837 837 836 836 836 836 836 836 836 835 835 835 835 835 835 835 835 834 834 835 835 835 835 835 836 837 838
790 792 793 795 797 798 800 802 804 806 808 809 811 813 815 816 818 819 820 821 822 823 824 825 825 826 827 828 829 830 832 834 835 836 836 837 838 839 839 838 837 837 836 835 835 835 835 835 834 834 834 834 834 834 833 833 833 833 833 832 832 833 833 833 833 834 835 835 836
789 791 792 794 795 797 799 801 803 805 806 808 810 812 813 815 816 817 818 819 820 821 822 823 824 825 826 827 828 830 831 833 833 834 835 836 837 837 837 837 836 835 834 834 834 833 833 833 833 833 832 832 832 832 832 831 831 831 831 830 830 830 830 831 831 832 833 833 834
789 790 791 793 795 797 798 800 802 804 805 807 809 810 812 813 814 815 817 818 819 820 821 822 823 823 825 826 828 829 830 831 832 833 834 835 836 836 835 835 834 833 833 833 832 832 832 831 831 831 830 830 830 830 830 829 829 829 829 828 828 828 828 829 830 831 831 832 833
789 790 792 793 795 797 798 800 801 803 805 806 808 809 810 811 813 814 815 816 817 819 820 821 822 823 824 826 827 828 829 830 831 832 833 834 834 834 834 833 832 832 832 831 831 831 830 830 830 829 829 828 828 828 827 827 827 827 826 826 826 826 827 827 829 829 829 830 831
790 791 793 794 796 797 798 800 801 802 803 805 806 807 808 810 811 813 814 815 817 818 819 820 822 823 824 826 827 828 829 829 830 831 832 832 833 833 832 831 831 830 830 830 830 829 829 828 828 828 827 827 826 826 825 825 825 825 825 825 824 824 825 826 827 827 827 828 829
791 792 793 795 796 797 798 799 800 801 802 803 805 806 807 809 810 812 813 815 816 817 819 820 822 823 824 825 826 827 828 829 829 830 830 831 831 831 830 829 829 829 829 828 828 828 827 827 826 826 825 825 825 824 824 823 823 823 823 823 822 823 823 824 824 825 825 826 827
791 792 793 794 795 796 797 798 799 800 801 802 804 805 806 808 809 811 812 814 816 817 819 820 821 823 824 825 826 827 827 828 828 828 829 830 830 829 828 828 827 827 827 827 826 826 825 825 825 824 824 823 823 822 822 821 821 821 821 820 820 821 821 822 823 823 824 825 825
790 791 792 793 794 795 796 797 798 799 800 802 803 804 806 807 809 810 812 814 815 817 818 820 821 822 823 824 825 826 826 826 826 827 828 828 828 827 826 826 826 825 825 825 825 824 824 823 823 822 822 821 821 820 820 819 819 819 819 818 819 819 820 821 822 823 823 824 824
788 789 790 791 792 793 795 796 797 799 800 801 802 804 805 807 809 811 812 814 815 816 818 819 820 822 823 824 824 824 824 824 825 826 827 827 826 825 825 824 824 824 824 823 823 822 822 821 821 820 820 819 819 818 818 817 817 817 817 817 817 818 819 820 821 822 823 823 823
785 787 789 790 792 793 794 795 796 798 799 800 802 804 805 807 809 811 812 813 815 816 817 818 820 821 822 822 823 823 823 823 824 825 825 825 824 824 823 823 822 822 822 822 821 821 820 819 819 818 818 817 816 816 815 815 815 815 815 815 816 817 818 819 820 821 822 822 822
784 786 788 790 791 792 793 794 795 797 798 800 802 804 806 807 809 810 812 813 814 815 816 818 819 820 821 821 821 821 822 822 823 823 823 823 823 823 822 821 821 820 820 820 819 819 818 817 817 816 816 815 814 814 813 813 813 813 813 814 814 815 816 817 818 819 820 820 820
783 785 787 788 790 791 792 793 794 796 798 800 802 804 805 807 808 810 811 812 813 814 816 817 818 819 820 820 820 820 820 821 822 822 822 822 822 821 821 820 819 818 818 818 817 817 816 815 815 814 813 813 812 812 811 811 811 811 811 812 812 813 814 815 816 817 817 817 818
783 785 786 787 788 789 791 793 794 796 798 800 802 803 805 806 808 809 810 811 813 814 815 817 818 818 818 818 818 819 819 820 821 821 821 820 820 820 819 818 817 817 816 816 815 814 814 813 813 812 811 811 810 810 810 810 810 810 810 810 810 811 812 813 814 814 814 814 815
783 784 785 786 787 789 791 793 795 797 798 800 801 803 804 805 807 808 809 810 812 813 815 816 817 817 817 817 817 818 818 819 819 819 819 819 819 818 818 817 815 815 814 813 813 812 812 811 810 810 809 809 808 808 808 808 808 808 808 808 808 808 810 811 811 812 812 813 813